Race Results for
2010 Land Park Criterium
Sacramento, CA
(Event Information)
View By:
Criterium on 03/21/2010

Note: Ranking points are NOT upgrade points. An explanation of ranking points can be found here.


Men - Cat 5

 Place Points NameCity, StateTime USAC #BibTeam
1522.75scott heather   Chico, CA00:00.0 306577  665 Chico Corsa
2524.43Byron Anson   West Sacramento, CA00:00.0 304735  352 Davis Bike Club
3526.11Brian Ray   Sacramento, CA00:00.0 303250  681 CSU Sacramento
4527.79Matt Chatlaong   Roseville, CA00:00.0 304797  656 Rio Strada Racing
5529.48Curtis Hong   Dublin, CA00:00.0 305875  666 Sac State
6531.16Dustin Mowe   Napa, CA00:00.0 304199  678 Eagle Racing Team
7532.84Emilio Alvarez   Rutherford, CA00:00.0 306712  350 Eagle Racing Team
8534.52Jeff Slaton   Davis, CA00:00.0 293126  688 Davis Bike Club
9536.20Spence Gerber   Folsom, CA00:00.0 221812  662 Bicycle Planet
10537.88Kevin Denison   El Dorado Hills, CA00:00.0 303642  660 Team Mad Cat
11Robert DELANEY   00:00.0  659 
12541.24Steve Rangoussis   Petaluma, CA00:00.0 305784  680 Echelon Gran Fondo/Z-Team
13542.92Sage Bauers   Sacramento, CA00:00.0 257738  353 
14544.61Mark Stern   Folsom, CA00:00.0 272223  689 Rio Strada
15546.29Raymond Martinez   Sacramento, CA00:00.0 290050  673 CSUS Cycling
16547.97Patrick Gordon   Vacaville, CA00:00.0 290498  663 Team Precision
17549.65Hector Sanchez   Sacramento, CA00:00.0 305737  684 Davis Bike Club
18551.33Nick McGowan   Rohnert Park, CA00:00.0 303653  674 Echelon Gran Fondo\Zteam
19553.01Daniel Pollard   Roseville, CA00:00.0 269166  679 Team Mad Cat
20554.69Mark Santillan   Fairfield, CA00:00.0 306635  687 Luzvimin Racing Team
21556.38Troy Underwood   Rancho Cordova, CA00:00.0 238691  697 Sacramento Golden Wheelmen
22558.06Curt Mills   Gold River, CA00:00.0 299412  676 
23559.74Patrick Cashell   Reno, NV00:00.0 305317  355 
24561.42Jon Keyzer   Fort Collins, CO00:00.0 298334  668 Chico Corsa
25563.10Brad Yeargain   Sacramento, CA00:00.0 39191  696 
26564.78John Griffin   Reno, NV00:00.0 307137  664 
27566.46Christopher Westphal   Sacramento, CA00:00.0 121777  694 Bicycle Planet
28568.14Michael Cochran   Sacramento, CA00:00.0 297795  657 Unattached
29Derek RAMSEY   00:00.0  671 
30571.51Shun Yao   Davis, CA00:00.0 287028  695 Team Mason Thomas
31573.19Mike Munoz   Cameronpark, CA00:00.0 307140  685 Unattached
32574.87Mark Roberts   Sacramento, CA00:00.0 305748  683 
33576.55Arin Jeffers   Rocklin, CA00:00.0 299848  667 
34578.23Christopher Dare   Oakland, CA00:00.0 286085  658 Team Clif bar
35579.91Josh Sharp   Elverta, CA00:00.0 296453  686 
36581.59Michael Brandt   Wilton, CA00:00.0 288772  354 Team Mad Cat
37583.27Chad Richards   Antelope, CA00:00.0 305850  682 N/A
38584.96David Mehl   El Dorado Hills, CA00:00.0 290396  675 Team Kinetic Cycles
39586.64Joshua Lewis   Roseville, CA00:00.0 302680  670 
40588.32ron faulk   Placerville, CA00:00.0 254588  661 NA
41590.00salifu mohammed   Sananselmo, CA00:00.0 304756  677 paradgm cycles
DNSKevin CORPUZ   00:00.0   
DNSRobert Knaggs   Lodi, CA00:00.0 244287   Williams Cycling/Delta Velo
DNSJustin Madison   Vacaville, CA00:00.0 304658   Percision Cycles
DNSJavier Sanchez   Santa Rosa, CA00:00.0 31181   Team NorCal Bike Sport
DNSRon Shevock   Folsom, CA00:00.0 294396   Team Mad Cat
DNSJohn Studebaker   Sacramento, CA00:00.0 288771   Mad Cat
DNSAlec THOMPSON   00:00.0   
DNSTroy Underwood   Rancho Cordova, CA00:00.0 238691   
DNSConnor Vance   Folsom, CA00:00.0 307873   
DNPJohn Anner   Albany, CA00:00.0 303115  351 Berkeley Bicycle Club
DNPManuel Calero   San Pablo, CA00:00.0 307277  669 Unattached
DNPCraig Martin   Auburn, CA00:00.0 304421  672 Folsom Bike

Men - Cat 4

 Place Points NameCity, StateTime USAC #BibTeam
1438.80Jeffrey Palileo   American Canyon, CA00:00.0 224717  579 Squadra Ovest Cycling
2440.85Rainier Schaefer   Sanfrancisco, CA00:00.0 304249  553 Godspeed Courier / Mojo Bicycl
3442.90Brandon Meadows   Sacramento, CA00:00.0 250736  537 Rio Strada Racing
4444.95Rob Brandt   Ennis, MT00:00.0 298803  510 Kryki Sports
5447.00Mike Carr   Rocklin, CA00:00.0 290981  582 Rio Strada Racing
6449.05Nathanael Dunn   Fair Oaks, CA00:00.0 290357  519 Rio Strada Racing
7Willie MYERS   00:00.0  538 Team City
8453.15Joe Dickerson   Los Gatos, CA00:00.0 306664  518 
9455.20Tim Fehon   San Francisco, CA00:00.0 263093  523 Team NorCal Bikesport
10457.25Brian McLean   Los Gatos, CA00:00.0 278289  536 SugarCRM
11459.30Jeffrey Pritchett   Vacaville, CA00:00.0 801  547 Davis Bike Club
12461.35Joshua Taylor   Sanfrancisco, CA00:00.0 287071  560 Mission Cycling
13463.40Matthew Valencia   Los Altos, CA00:00.0 255576  578 Team Specialized Racing Junior
14465.45Michael Claudio   West Sacramento, CA00:00.0 248052  584 Ikon Cycles Race Team
15467.50Joseph Staron   Sacramento, CA00:00.0 132859  555 
16469.55Kashy Ghazzagh   Santa Rosa, CA00:00.0 295719  527 Team Norcal Bike Sport
17471.60Aaron Marchand   Sacramento, CA00:00.0 289169  577 Health is Wealth powered by Wh
18473.65Peter Rumble   Santa Rosa, CA00:00.0 242773  551 EchelonCycles.com
19475.70Benjamin Weekes   Oakland, CA00:00.0 109383  570 Major Motion
20477.75fergus tanaka   San Francisco, CA00:00.0 304367  559 freewheel
21479.80David Vega   Mill Valley, CA00:00.0 303124  566 Dolce Vita Cycling
22481.85Kevin White   San Francisco, CA00:00.0 256199  580 Godspeed Courier
23483.90Michael Painter   Chico Ca00:00.0 289184  542 Chico Corsa Cycling Club
24485.95Daniel Lebson   Folsom, CA00:00.0 295237  534 Rio Strada Racing
25488.00Steven Au   Burlingame, CA00:00.0 91064  503 Team Roaring Mouse
26490.05Vincent Juarez   San Jose, CA00:00.0 286414  581 SJBC
27492.09James Berry   San Francisco, CA00:00.0 271681  508 Dolce Vita Cycling
28494.14Ryan Odell   Sacramento, CA00:00.0 288200  540 Davis Bike Club
29496.19Mark Valentino   El Dorado Hills, CA00:00.0 112974  565 SJBC
30498.24Joaquin Feliciano   Davis, CA00:00.0 271419  524 Davis Bike Club
31500.29Chris Horton   Sacramento, CA00:00.0 280611  531 Davis Bike Club
32502.34Kirk Evans   Sacramento, CA00:00.0 259534  521 Ikon Cycles Race Team
33504.39Robert Goss   Folsom, CA00:00.0 289041  583 
34506.44Darron Sturgeon   Reno, NV00:00.0 286787  557 Taleo Racing
35508.49Eric Chi   Cupertino, CA00:00.0 223566  513 
36510.54Phil Alne   San Jose, CA00:00.0 236191  501 SJBC
37512.59Erik Camacho   San Jose, CA00:00.0 303224  512 Team Fremont/FFBC powered by C
38514.64John Becker   Sanfrancisco, CA00:00.0 284814  507 Team Roaring Mouse
39516.69Reed Azevedo   Manteca, CA00:00.0 281782  504 Williams Cycling Team
40518.74Scott Bristow   Napa, CA00:00.0 219120  500 Eagle Racing
41520.79Steve Ball   Napa, CA00:00.0 59338  505 Eagle Racing Team
42522.84Matthew Triska   San Francisco, CA00:00.0 257229  563 Squadra Ovest Cycling
43524.89Eric Clauss   San Francisco, CA00:00.0 198040  514 Squadra Ovest Cycling
44526.94Timothy Burgess   Windsor, CA00:00.0 275383  511 Team NorCal Bikesport
45528.99Robert Manly   San Francisco, CA00:00.0 272128  535 Metromint Cycling
46531.04Tim Sutliff   Walnut Creek, CA00:00.0 258632  558 Taleo Racing
47533.09Ross Trenary   Oakland, CA00:00.0 255259  562 Metromint Cycling
48535.14Jason Ziegenhirt   Grass Valley, CA00:00.0 284690  573 Team Chico
49537.19Cameron Walker   Sacramento, CA00:00.0 275120  576 Bicycle Chef-Bio Bar
50539.24Romeo Uriarte   Orinda, CA00:00.0 262503  564 Berkeley Bicycle Club
51541.29Allan Armstrong   Los Altos, CA00:00.0 51079  502 Webcor/Alto Velo
52543.34Gary Thompson   Davis, CA00:00.0 286875  561 Davis Bike Club
53545.39Chris Hopkins   Sacramento, CA00:00.0 280762  530 Davis Bike Club
54547.44Stephen Wassather   Santa Cruz, CA00:00.0 269058  568 Rio Strada Racing
55549.49Robert Smith   Gold River , CA00:00.0 299828  574 Rio Strada Racing
56551.54Aaron Rindy   Reno, NV00:00.0 303731  549 
57553.59Jeff Sawyer   Rocklin, CA00:00.0 220240  552 Team Hammer Nutrition
58555.64Roberto Bayan   Danville, CA00:00.0 60398  506 taleo
59557.69Gregg Lehman   Vacaville, CA00:00.0 250959  575 Precision Bicycles/Team Precis
DNSMichael Boehme   Windsor, CA00:00.0 252576   Colavita Racing-Norcal
DNSJohn Collins   Folsom, CA00:00.0 231774   Team Revolutions
DNSK Scott Davis   Palo Alto, CA00:00.0 257793   QuadCycles
DNSRobbie Farrens   Stockton, CA00:00.0 289433   DJs Produce - Rocket Sports-Tr
DNSMichael Gaiman   San Francisco, CA00:00.0 299144   Mission Cycling
DNSKen Hill   Woodland, CA00:00.0 274292   Davis Bike Club
DNSEugene Kim   Huntington Beach, CA00:00.0 303809   Mission Cycling
DNSAnthony ODell   Orangevale, CA00:00.0 287267   Bicycle Planet
DNSRowel (Rob) Palisoc   Berkeley, CA00:00.0 195972   SGW/City Bicycle Works
DNSBurl Pershall   San Anselmo, CA00:00.0 276353   Village Peddler
DNSRyan Price   Santa Rosa, CA00:00.0 267121   NA
DNSRob Robinson   Castro Valley, CA00:00.0 271386   Taleo Racing
DNSJulian Simioni   San Francisco, CA00:00.0 239604   Webcor/Alto Velo
DNSMichael Stoner   Tucson, AZ00:00.0 287280   Davis Bike Club
DNSJeffrey Weaver   Sacramento, CA00:00.0 290926   Davis Bike Club
DNSBrad Wilson   Sacramento, CA00:00.0 273321   Team Mad Cat
DNPJames Cotta   Lodi, CA00:00.0 282175  516 Williams Cycling
DNPJohn Ellis   Santa Rosa, CA00:00.0 262353  520 Colavita Racing-Norcal
DNPAlexander Fuentes   Fairfield, CA00:00.0 219016  525 Luzvimin Racing
DNPGreg Granato   San Jose, CA00:00.0 219883  528 
DNPKayden Kelly   Auburn, CA00:00.0 101369  532 
DNPScott Osgood   Modesto, CA00:00.0 26875  541 Fun Sports Bike Cycling Team
DNPJeffrey Palileo   American Canyon, CA00:00.0 224717  543 Squadra Ovest Cycling
DNPJared Prolo   San Francisco, CA00:00.0 204463  548 Team Roaring Mouse
DNPBryan Warhold   Sacramento, CA00:00.0 148346  567 Ikon Cycles Race Team
DNPRaymond Wong   Elk Grove, CA00:00.0 53811  572 Davis bike club

Men - Cat 4 - Master - 35-99

 Place Points NameCity, StateTime USAC #BibTeam
1425.15Bob McCamish   Roseville, CA00:00.0 285998  742 Rio Strada Racing
2427.55Eric Zeigler   Auburn, CA00:00.0 60207  769 
3429.94Brian McLean   Los Gatos, CA00:00.0 278289  743 SugarCRM
4432.34Ryan Lenhardt   San Ramon, CA00:00.0 20890  739 Taleo Racing
5434.74Matt Connolly   Sacramento, CA00:00.0 302694  717 Rio Strada Racing
6437.13Luiggi Zuniga   Walnut Creek, CA00:00.0 281715  770 NA
7439.53Rick Graves   San Rafael, CA00:00.0 100365  732 Taleo Racing
8441.92Joseph Staron   Sacramento, CA00:00.0 132859  760 
9444.32Paul Malenke   Roseville, CA00:00.0 82738  741 Team Bicycles Plus/Sierra Neva
10446.72Mike Nissen   Livermore, CA00:00.0 296024  747 Taleo Racing
11449.11paul diaz   Cloverdale, CA00:00.0 271260  772 Colavita Racing-Norcal
12451.51Tom Dillard   Redding, CA00:00.0 81589  722 Owens Healthcare
13453.91Michael Boehme   Windsor, CA00:00.0 252576  708 Colavita Racing-Norcal
14456.30Steven Kirby   Santa Rosa, CA00:00.0 271079  737 Colavita Racing-Norcal
15458.70Joaquin Feliciano   Davis, CA00:00.0 271419  726 Davis Bike Club
16461.09Jeff Watson   Elk Grove, CA00:00.0 293136  767 Team Bicycles Plus/Sierra Neva
17463.49Eric Clauss   San Francisco, CA00:00.0 198040  714 Squadra Ovest Cycling
18465.89Michael Saba   Oakland, CA00:00.0 285459  756 Taleo Racing
19468.28Greg Tsutaoka   Oakland, CA00:00.0 296665  765 Berkeley Bike Club
20470.68John Ellis   Santa Rosa, CA00:00.0 262353  724 Colavita Racing-Norcal
21473.08Sean Odom   Carmichael, CA00:00.0 223061  773 Rio Strada Racing
22475.47Tim Fehon   San Francisco, CA00:00.0 263093  725 Team NorCal Bikesport
23477.87Kayden Kelly   Auburn, CA00:00.0 101369  736 
24480.26Joseph Clifford   Roseville, CA00:00.0 232661  715 Taleo Racing
25482.66Gregg Lehman   Vacaville, CA00:00.0 250959  738 Precision Bicycles / Team Prec
26485.06Scott Bristow   Napa, CA00:00.0 219120  700 Eagle Racing
27487.45Richard Asturias   Pleasanton, CA00:00.0 236210  704 Tri Valley Velo
28489.85Darron Sturgeon   Reno, NV00:00.0 286787  762 Taleo Racing
29492.25Steve Ball   Napa, CA00:00.0 59338  706 Eagle Racing Team
30494.64Phillip Heiman   Penngrove, CA00:00.0 204100  734 Colavita Racing-Norcal
31497.04Reed Azevedo   Manteca, CA00:00.0 281782  705 Williams Cycling Team
32499.44Jeff Sawyer   Rocklin, CA00:00.0 220240  757 Team Hammer Nutrition
33501.83Erik Camacho   San Jose, CA00:00.0 303224  712 Team Fremont/FFBC powered by C
34504.23Michael Medina   Rocklin, CA00:00.0 185025  745 
35506.62Mike Carr   Rocklin, CA00:00.0 290981  713 Rio Strada Racing
36509.02Devinderjit Singh   Yuba City, CA00:00.0 296818  777 Davis Bike Club Race Team
37UNKNOWN RIDER   00:00.0  ??? -------
38513.81Alan Roberts   San Rafael, CA00:00.0 282684  753 Unattached
39516.21Romeo Uriarte   Orinda, CA00:00.0 262503  766 Berkeley Bicycle Club
40518.61Eric Struble   Nevada City, CA00:00.0 220864  776 SERT/Sho-Air
41521.00Eric Gordon   San Rafael, CA00:00.0 304956  729 
42523.40Tim Sutliff   Walnut Creek, CA00:00.0 258632  763 Taleo Racing
43525.79Scott Osgood   Modesto, CA00:00.0 26875  750 Fun Sports Bike Cycling Team
44528.19Robert Goss   Folsom, CA00:00.0 289041  730 Rio Strada Racing
45530.59Trevor Cadogan   Roseville, CA00:00.0 284507  711 Rio Strada Racing
46532.98Jack Arney   Lincoln, CA00:00.0 301427  703 Folsom Bike
47535.38James Cotta   Lodi, CA00:00.0 282175  718 Williams Cycling
48537.78Phil Alne   San Jose, CA00:00.0 236191  701 SJBC
49540.17Arthur Fellows   Grass Valley, CA00:00.0 230577  727 SERT/Sho-air
50542.57James Whitney   Lincoln, CA00:00.0 51073  768 Fusion Sport
51544.96Greg Granato   San Jose, CA00:00.0 219883  528 
52547.36Timothy Spillane   Roseville, CA00:00.0 110134  759 Rio Strada Racing
53549.76Rowel (Rob) Palisoc   Berkeley, CA00:00.0 195972  778 Kaiser Permanente/ Team Oaklan
54552.15Derek Byrne   Sacramento, CA00:00.0 242323  710 Davis Bike Club
55554.55Allan Armstrong   Los Altos, CA00:00.0 51079  702 Webcor/Alto Velo
56556.95Morgan Mahanke   El Dorado Hills, CA00:00.0 226577  740 Team Bicycles Plus/Sierra Neva
57George REYNANTE   00:00.0  771 Luzvimin Racing
58561.74Derek Novaes   West Sacramento, CA00:00.0 274484  748 Rio Strada Racing
59564.14David Haslemann   Folsom, CA00:00.0 277664  733 Rio Strada Racing
60566.53Juan Ortiz   Castro Valley, CA00:00.0 26838  775 Unattached
61568.93Donald Eipper   El Dorado Hills, CA00:00.0 248941  723 Team Revolutions
62571.32GARY SPEER   Oroville, CA00:00.0 272940  758 Oxyfuel Racing
63573.72Arman Medina   San Bruno, CA00:00.0 254944  744 
64Roberto PEREZ   00:00.0  774 
65578.51Steve Rosefield   Pleasanton, CA00:00.0 298343  755 Tri Valley Velo
66580.91Timothy Burgess   Windsor, CA00:00.0 275383  709 Team NorCal Bikesport
67583.31Francisco Gatdula   Lodi, CA00:00.0 111613  728 LUZVIMIN RACING TEAM
68585.70Tim Stiles   Santa Rosa, CA00:00.0 302100  761 Echeloncycle.com
DNSVee Bhopla   Sacramento, CA00:00.0 258303   Team Mad Cat
DNSJohn Collins   Folsom, CA00:00.0 231774   Team Revolutions
DNSRichard Coyle   Granite Bay, CA00:00.0 277158   Rio Strada Racing
DNSRick Cunningham   Fair Oaks, CA00:00.0 8361   Folsom Breakouts
DNSK Scott Davis   Palo Alto, CA00:00.0 257793   QuadCycles
DNSTorgen Hiehle   Carmichael , CA00:00.0 195356   Sacramento Golden Wheelmen/Cit
DNSPaul Mitchell   Sacramento, CA00:00.0 220645   Davis Bike Club
DNSKen Olofsen   San Francisco, CA00:00.0 289442   Mission Cycling
DNSBrian Priddin   El Dorado, CA00:00.0 178247   
DNSRob Robinson   Castro Valley, CA00:00.0 271386   Taleo Racing
DNSErim Taser   Lodi, CA00:00.0 205116   Williams Cycling
DNPAaron Phillips   Brentwood, CA00:00.0 273263  751 Williams Cycling

Men - Cat 3

 Place Points NameCity, StateTime USAC #BibTeam
1305.75Riley Oneal   San Diego, CA00:00.0 192343  850 University of California-Davis
2310.98Andrew Lancashire   Elk Grove, CA00:00.0 218734  816 
3316.21Ryan Gadow   Dublin, CA00:00.0 271417  812 SJBC
4321.44Justin Rossi   Reno, NV00:00.0 298550  821 
5326.67Luke Ramseth   Colfax, CA00:00.0 208152  849 Adventures Edge
6331.90Ramsey Etchison   Truckee, CA00:00.0 251486  840 Cyclepaths/Wild Cherries Racin
7337.13Samuel Bolster   Camino, CA00:00.0 258704  803 Team Kinetic Cycles
8342.36Richard Steele   El Dorado Hills, CA00:00.0 58347  826 Sacramento Golden Wheelmen
9347.59Karl Wurzbach   Fairfield, CA00:00.0 260329  853 Davis Bike Club
10352.82Henry Scholz   San Francisco, CA00:00.0 267795  852 Team Roaring Mouse
11358.05Thomas Dillon   Los Altos Hills, CA00:00.0 50011  808 Peninsula Velo/Pomodoro
12363.28James Ryan   San Jose, CA00:00.0 163902  845 Los Gatos
13368.51Darren Marino   Duvall, WA00:00.0 256809  844 Unattached
14373.74Alvaro Mosquera   Sacramento, CA00:00.0 236809  819 Team Bicycle Plus/Sierra Nevad
15378.97Ken Gallardo   Belmont, CA00:00.0 255453  846 Peninsula Velo/Pomodoro
16384.20David Acri   San Francisco00:00.0 233803  800 Squadra Ovest Cycling
17389.43AJ Snovel   Sacramento, CA00:00.0 272559  838 Davis Bike Club Race Team
18UNKNOWN RIDER   00:00.0  ??? -------
19399.89Scott Butler   Columbia, MO00:00.0 106701  805 Williams Cycling
20405.12Anthony Ferretti   Oroville, CA00:00.0 283185  811 Chico Corsa
21410.35Jared Ives   Santa Rosa, CA00:00.0 207956  842 Unattached
22415.58Joseph Christensen   Clements, CA00:00.0 240832  839 SJBC
23420.81Kenny Strickland   San Ramon, CA00:00.0 270965  827 SJBC
24426.04Nick Kinney   Windsor, CA00:00.0 255460  831 Colavita Racing
25431.27Joshua Bullock   Sacramento, CA00:00.0 153414  804 Chico Corsa/Sierra Nevada
26436.50Samuel Wilson   Palo Alto, CA00:00.0 248077  830 Metromint Cycling
27441.73David Barok   West Sacramento, CA00:00.0 62053  802 Teamcity
28446.96Alistair Eeckman   Berkeley, CA00:00.0 281189  851 Team Specialized Racing Junior
29452.19Cody Tapley   Citrus Heights, CA00:00.0 234610  828 Davis Bike club
30457.42Mark Hockridge   Granite Bay, CA00:00.0 269690  835 Davis Bike Club Race Team
31462.66Todd Kohli   San Francisco, CA00:00.0 198414  814 ALA Cycling p/b Lombardi Sport
32467.89Nathan Shaw   Castro Valley, CA00:00.0 196249  847 Fusion Sport USA
33473.12Jason Allen   Carmichael, CA00:00.0 202003  801 River City Racing / Hot Italian
34478.35Nole Studley   Oakland, CA00:00.0 251301  848 Team Roaring Mouse
35483.58Glenn Chadwick   Sacramento, CA00:00.0 119039  843 Hot Italian
36488.81Randall Smith   San Carlos, CA00:00.0 185237  825 Peninsula Velo/Pomodoro
37494.04Steven Larsen   Placerville00:00.0 203934  836 Rio Strada Racing
38499.27Stephen Synhorst   Sacramento, CA00:00.0 234097  832 Sacramento Golden Wheelmen
39504.50Nicolas Schweizer   Sacramento, CA00:00.0 230919  824 Sacramento Golden Wheelmen
40509.73Luther Kopf   Oakland, CA00:00.0 205705  815 Dolce Vita Cycling
DNSSergio Jimenez   Carmichael, CA00:00.0 141124   Rio Strada Racing
DNSRonald Miller   Sacramento, CA00:00.0 113098   Sacramento Golden Wheelmen
DNSThomas Morris   Roseville, CA00:00.0 25151   Fightin Bobas
DNPChris Dawson   Sacramento, CA00:00.0 224241  807 Hot Italian
DNPJeff Dillon   Folsom, CA00:00.0 9524  809 Bicycle Planet
DNPBenjamin Dodge   San Jose, CA00:00.0 178595  810 Sugar CRM
DNPMark Robertson   Oakland, CA00:00.0 237380  820 Taleo Racing
DNPDouglas Rowland   Davis, CA00:00.0 295966  822 Davis Bike Club
DNPNabil Samaan   Fair Oaks, CA00:00.0 177518  823 
DNPScott Walnofer   Springdale, AR00:00.0 203030  829 Snapple Cycling Team
DNPChristopher Pillette   San Francisco, CA00:00.0 126127  833 
DNPSteve Thomsen   Reno, NV00:00.0 245436  834 Great Basin Imaging Cycling Te
DNPJames Herzman   Truckee, CA00:00.0 207922  837 Kinetic Cycles/GBI
DNPAaron Hanna   San Jose, CA00:00.0 204722  841 Los Gatos Bicycle Racing Club
DNPDennis KOTCH   00:00.0  854 Dolce Vita

Men - Pro/Cat 1/2

 Place Points NameCity, StateTime USAC #BibTeam
1193.05Rand Miller (1 - Cat1)   San Francisco, CA00:00.0 182990  151 Webcor/Alto Velo
2197.74Joe Iannarelli   Vacaville, CA00:00.0 195783  158 TEAM CLIF BAR Cycling
3202.43Max Polin   Davis, CA00:00.0 228684  148 Hot Italian
4207.11Peter Knudsen   Sacramento, CA00:00.0 97881  155 Unattached
5211.80Collin Samaan (2 - Cat1)   Fair Oaks, CA00:00.0 196233  119 
6216.49Hendrik Pohl   San Francisco, CA00:00.0 207753  126 Fusion Sport USA
7221.18Judd Van Sickle   Sacramento, CA00:00.0 127052  120 Rocknasium
8225.87Dean LaBerge   Napa, CA00:00.0 67041  113 Team Specialized Racing
9230.56Neil Bartley   San Jose, CA00:00.0 209268  143 Berkeley Bicycle Club (BBC)
10235.25Robert Scheffler   Alamo, CA00:00.0 239048  160 California Polytechnic-San Lui
11239.93Jan Weissenberger   San Francisco, CA00:00.0 186678  122 SAFEWAY/Bicycles Plus/PureRed
12244.62Daniel Farinha   San Jose, CA00:00.0 240558  108 SJBC
13249.31Randy Bramblett   San Francisco, CA00:00.0 187194  139 Williams Cycling
14254.00John Bergmann   Albany, CA00:00.0 187522  161 TEAM CLIF BAR Cycling
15258.69Dylan Clark (1 - Cat2)   Auburn, CA00:00.0 243069  104 Victory Velo
16263.38Michael Jasinski   Rocklin, CA00:00.0 269476  141 Chico Corsa Cycling Club
17268.06Mitchell Trux   San Francisco, CA00:00.0 153684  131 Metromint Cycling
18272.75Michael Gil   San Francisco, CA00:00.0 261220  110 Godspeed Courier
19277.44Evan Pickett (3 - Cat1)   Menlo Park, CA00:00.0 206742  153 Webcor/Alto Velo
20282.13Christopher Baker   Sacramento, CA00:00.0 47424  101 Morgan Stanley-Smith Barney/Sp
21286.82Peter Graf   Sacramento, CA00:00.0 218511  128 American Lung Association Cycl
22291.51Sean Rhea (4 - Cat1)   San Francisco, CA00:00.0 178535  152 Metromint Cycling
23296.20Josh Rennie   Reno, NV00:00.0 251736  116 TEAM CLIF BAR Cycling
24300.88Jim Riley   Oakalnd, CA00:00.0 287039  117 Godspeed Courier
25305.57Dave Kause (2 - Cat2)   Sacramento, CA00:00.0 175157  129 Unattached
26310.26Nicholas Oliver   El Dorado Hills, CA00:00.0 271541  115 Wells Fargo Racing
27314.95Michael Egan   West Sacrametno, CA00:00.0 124893  107 Sacramento Golden Wheelmen
28319.64Jonz Norine   Redding, CA00:00.0 64734  133 Owens Healthcare
29324.33Alexander Wick (3 - Cat2)   Davis, CA00:00.0 196337  146 Davis Bike Club Race Team
30UNKNOWN RIDER   00:00.0  164 -------
31333.70Blake Anton   Arroyo Grande, CA00:00.0 192686  156 SLO Nexus-Gym One
32338.39Michael Ma   San Jose, CA00:00.0 41600  135 Unattached
33343.08Aaron Gallardo   Woodland Hills Ca00:00.0 160366  130 Team Helen's
34347.77David Pouncy   Piedmont, CA00:00.0 248071  157 Berkeley Bicycle Club (BBC)
35352.46William Reuss   Redding, CA00:00.0 204939  132 Owens Healthcare
36357.15Alton Dunnigan   Pleasant Hill, CA00:00.0 157044  106 ALA Cycling p/b Lombardi Sport
37361.84Robert Pasco   Belmont, CA00:00.0 136970  168 SAFEWAY/Bicycles Plus/PureRed
38366.52Todd Dodds   Redding, CA00:00.0 204936  105 Owens Healthcare
39371.21Mark Deterline   Salt Lake City, UT00:00.0 43613  163 Wells Fargo Racing Team
40375.90Jesse Moore   Sacramento, CA00:00.0 204739  134 California Giant Berry Farms/S
41380.59Sergei Badeka   Palo Alto, CA00:00.0 118797  140 Third Pillar
42385.28Brandon Correia   Alameda, CA00:00.0 188308  124 Godspeed Courier
43389.97Yacov Spivak (4 - Cat2)   Fair Oaks, CA00:00.0 241816  154 Chico Corsa Cycling Club
44394.66Michael Cordova   Chester, CA00:00.0 207547  144 Chico Corsa Cycling Club
45399.34Robert Dahl   Oakland, CA00:00.0 218381  125 Metromint Cycling
46404.03Alex Holtz   Sacramento, CA00:00.0 61440  111 Morgan Stanley Smith Barney/Sp
47UNKNOWN RIDER   00:00.0  165 -------
48413.41Paul Carter   Pleasant Hill, CA00:00.0 58642  162 Wells Fargo Racing Team
49418.10Andrew Kennedy   Martinez, CA00:00.0 257276  112 Hybrid EP Cycling
50422.79Tim Granshaw   Redwood City, CA00:00.0 55803  137 Sierra Pacific Racing
51427.48Joel Robertson   San Leandro, CA00:00.0 220316  138 Webcor/Alto Velo
52432.16Doran Mori   Oakland, CA00:00.0 196267  159 TEAM CLIF BAR Cycling
53436.85Robert Evans   Scotts Valley, CA00:00.0 72893  127 Unattached
54441.54Daniel Prater   Davis, CA00:00.0 28612  166 Rocknasium
55446.23Troy White   Sacramento, CA00:00.0 38024  149 
56450.92Adam Ross   Folsom, CA00:00.0 167796  118 Wells Fargo Racing Team
57455.61Richard Bradley   Sacramento, CA00:00.0 223944  150 Morgan Stanley Smith Barney/Sp
58460.30Patrick McLaughlin   Lafayette, CA00:00.0 227027  147 Wells Fargo Racing Team
DNSGabriel Byrne   Santa Cruz, CA00:00.0 178761   Sportgenic/Squadra Ovest
DNSTro WHITE   00:00.0   
DNPMack Chew (Cat2)   San Francisco, CA00:00.0 170147  103 ALA Cycling p/b Lombardi Sport
DNPChad Gerlach (Cat1)   West Sacramento, CA00:00.0 50138  109 
DNPPeter Nicholson   Mill Valley00:00.0 219558  114 NorCal Bike Sport Elite
DNPRobin VanValkenburgh   Yuba City, CA00:00.0 62349  121 Rocknasium
DNPDylan Seguin   Boise, ID00:00.0 44296  136 TEAM CLIF BAR Cycling
DNPJenson Lee (Cat2)   Saratoga, CA00:00.0 212393  142 Wells Fargo Racing Team
DNPZachary Wick (Cat2)   Davis, CA00:00.0 200743  145 Davis Bike Club Race Team
DNPDennis Baker   Sacramento, CA00:00.0 255279  167 Sacramento Golden Wheelmen

Men - Cat 1/2/3 - Master - 30-99

 Place Points NameCity, StateTime USAC #BibTeam
1227.13Chad Gerlach (1 - Cat1)   West Sacramento, CA00:00.0 50138  417 
2230.24Alex Holtz   Sacramento, CA00:00.0 61440  420 Morgan Stanley Smith Barney/Sp
3233.35Michael O'Rourke   Auburn, CA00:00.0 204496  458 SAFEWAY/Bicycles Plus/PureRed
4236.47Scott Fonseca   Fair Oaks, CA00:00.0 204715  415 Zenn Racing Team
5239.58Jesse Moore   Sacramento, CA00:00.0 204739  483 California Giant Berry Farms/S
6242.69Peter Graf   Sacramento, CA00:00.0 218511  463 American Lung Association Cycl
7245.80Andrew Kennedy   Martinez, CA00:00.0 257276  423 Hybrid EP Cycling
8248.91Mitchell Trux   San Francisco, CA00:00.0 153684  475 Metromint Cycling
9252.02Hunter Ziesing   Bel Tiburon, CA00:00.0 39478  497 Echelon Gran Fondo/Zteam
10255.13Brandon Correia   Alameda, CA00:00.0 188308  444 Godspeed Courier
11258.24John Bergmann   Albany, CA00:00.0 187522  481 TEAM CLIF BAR Cycling
12261.35Daniel Casper   Northfield, MN00:00.0 214654  464 GrandStay Hotels
13264.46Mack Chew (1 - Cat2)   San Francisco, CA00:00.0 170147  447 ALA Cycling p/b Lombardi Sport
14267.57Christopher Baker   Sacramento, CA00:00.0 47424  401 Morgan Stanley-Smith Barney/Sp
15270.68Norman Zellers   El Segundo, CA00:00.0 140740  476 Kinetic Cycles/GBI
16273.79Joel Robertson   San Leandro, CA00:00.0 220316  492 Webcor/Alto Velo
17276.90David Albrecht   Chico, CA00:00.0 47091  400 Chico Corsa Cycling Team
18280.01Jan Weissenberger   San Francisco, CA00:00.0 186678  442 SAFEWAY/Bicycles Plus/PureRed
19283.12Mike Gadow   Dublin, CA00:00.0 12619  489 SJBC
20286.23Nicholas Oliver   El Dorado Hills, CA00:00.0 271541  431 Wells Fargo Racing
21289.34Robert Pasco   Belmont, CA00:00.0 136970  455 SAFEWAY/Bicycles Plus/PureRed
22292.45Todd Dodds   Redding, CA00:00.0 204936  412 Owens Healthcare
23295.56Max Mack   Sacramento, CA00:00.0 45629  445 Health is Wealth powered by Wh
24298.67Jason Brown   Lodi, CA00:00.0 53115  404 Kinetic Cycles/GBI
25301.78Angelo DiGiovine   San Francisco, CA00:00.0 141326  468 Squadra Ovest Cycling
26304.89Rob Cady   Elk Grove, CA00:00.0 49774  407 Zenn Racing Team
27308.00Dave Kause (2 - Cat2)   Sacramento, CA00:00.0 175157  422 Shriners/Quick Step Cycling Te
28311.11Gabriel Byrne   Santa Cruz, CA00:00.0 178761  406 Sportgenic/Squadra Ovest
29314.22William Reuss   Redding, CA00:00.0 204939  477 Owens Healthcare
30317.33Dean LaBerge   Napa, CA00:00.0 67041  425 Team Specialized Racing
31320.44Steve Offerman   Sacramento, CA00:00.0 81992  456 Rio Strada Racing
32323.55Chris Espy   Sacramento, CA00:00.0 61649  478 Unattached
33326.66Josh Rennie   Reno, NV00:00.0 251736  435 TEAM CLIF BAR Cycling
34329.77John O'Neill   San Mateo, CA00:00.0 52722  402 Team Clover
35332.88David Pouncy   Piedmont, CA00:00.0 248071  466 Berkeley Bicycle Club (BBC)
36335.99Aaron Gallardo   Woodland Hills Ca00:00.0 160366  474 Team Helen's
37339.10Jason Boynton   Yuba City, CA00:00.0 4526  403 Rocknasium
38342.21Alvaro Mosquera   Sacramento, CA00:00.0 236809  428 Team Bicycle Plus/Sierra Nevad
39345.32Peter Nicholson   Mill Valley00:00.0 219558  430 NorCal Bike Sport Elite
40348.43Stephen McCaw   Sacramento, CA00:00.0 62322  479 Rocknasium
41351.54Spencer Kenner   Davis, CA00:00.0 86651  424 FCI Commercial
42UNKNOWN RIDER   00:00.0  470 -------
43357.76Tom Fahey   Lodi, CA00:00.0 54092  486 MRBerkeley.com p/b Bell Lap
44360.87Andre Tenthorey   Granite Bay, CA00:00.0 76561  488 Sacramento Golden Wheelmen
45363.98Chris Ott   San Jose, CA00:00.0 26920  433 Zenn Racing Team
46367.09Mark Deterline   Salt Lake City, UT00:00.0 43613  494 Wells Fargo Racing Team
47370.20Michael Ma   San Jose, CA00:00.0 41600  484 Unattached
48373.31Ryan Wong   San Jose, CA00:00.0 42770  471 Form Fitness
49376.42Dennis Baker   Sacramento, CA00:00.0 255279  472 Sacramento Golden Wheelmen
50379.53Joshua Bullock   Sacramento, CA00:00.0 153414  405 Chico Corsa/Sierra Nevada
51382.64Peter Brown   Santa Barbara, CA00:00.0 118988  465 Team Clover
52385.75Aaron Hunter   Santa Cruz, CA00:00.0 215194  448 Kinetic Cycles/GBI
53388.86Jonz Norine   Redding, CA00:00.0 64734  480 Owens Healthcare
54391.97Russell Clays   Tracy, CA00:00.0 50248  495 Christian Cycling-Hammer Nutri
55395.08Murat Ozgur   Los Altos, CA00:00.0 41335  490 Squadra Ovest Cycling
56398.19Ryan Hata   Sacramento, CA00:00.0 368  418 Kinetic Cycles/GBI
57401.30Joseph Oliveri   Grass Valley, CA00:00.0 26674  451 HDR Racing p/b Lombardi Sports
58404.41Robin VanValkenburgh   Yuba City, CA00:00.0 62349  441 Rocknasium
59407.52Steve Thomsen   Reno, NV00:00.0 245436  449 Great Basin Imaging Cycling Te
60410.63Brian McCleary (3 - Cat2)   Sacramento, CA00:00.0 109066  427 Armstrong & Associates
61413.74Paul Carter   Pleasant Hill, CA00:00.0 58642  408 Wells Fargo Racing Team
62416.85Rich Mader   Sacramento, CA00:00.0 222996  454 Zenn Racing Team
63419.96Chris Dawson   Sacramento, CA00:00.0 224241  410 Hot Italian
64423.07Stephen Synhorst   Sacramento, CA00:00.0 234097  443 Sacramento Golden Wheelmen
65426.18Robert Evans   Scotts Valley, CA00:00.0 72893  462 Unattached
66429.29Benjamin Dodge (1 - Cat3)   San Jose, CA00:00.0 178595  413 Sugar CRM
67432.40Dennis Hopp   San Jose, CA00:00.0 54895  421 SJBC
68435.51Douglas Rowland   Davis, CA00:00.0 295966  438 Davis Bike Club
69438.62Nabil Samaan   Fair Oaks, CA00:00.0 177518  498 Unattached
70441.73Bubba Melcher   Reno, NV00:00.0 23961  409 Team Clover
71444.84James Herzman   Truckee, CA00:00.0 207922  459 Kinetic Cycles/GBI
72447.95Aaron Hanna   San Jose, CA00:00.0 204722  473 Los Gatos Bicycle Racing Club
73451.06Patrick Tafoya   Redwood City, CA00:00.0 34910  496 Safeway/BP
74454.17Daniel Prater   Davis, CA00:00.0 28612  487 Rocknasium
75457.28Judd Van Sickle   Sacramento, CA00:00.0 127052  440 Rocknasium
76460.39Tim Granshaw   Redwood City, CA00:00.0 55803  491 Sierra Pacific Racing
77UNKNOWN RIDER   00:00.0  493 -------
78466.61Doran Mori   Oakland, CA00:00.0 196267  482 TEAM CLIF BAR Cycling
79469.72Dylan Seguin   Boise, ID00:00.0 44296  485 TEAM CLIF BAR Cycling
80472.83Jason Snovel   Sacramento, CA00:00.0 268577  461 Rocknasium
81475.94John Fairbanks   Sacramento, CA00:00.0 83306  414 SAFEWAY/Bicycles Plus/PureRed
DNSGregory Anderson   Vacaville, CA00:00.0 90802   Morgan Stanley Smith Barney/Sp
DNSKurt Bickel   Upland, CA00:00.0 219611   Joes Pro Bikes
DNSRon Castia   Livermore, CA00:00.0 144264   ThirstyBear Cycling
DNSChris Dawson   Sacramento, CA00:00.0 224241   Hot Italian
DNSCraig Lindberg   Nevada City, CA00:00.0 83707   SERT/Sho-Air
DNSRobert Nichols   Lockeford, CA00:00.0 255632   Williams Cycling
DNSGerald Roberts   Sacramento, CA00:00.0 30073   Alcal
DNSMitchell Rohrer   Sacramento, CA00:00.0 30439   Team City
DNPVincent Gee   Sacramento, CA00:00.0 13001  416 Mellow Johnny's
DNPTodd Hennings   Kenwood, CA00:00.0 15835  419 Hybrid EP Cycling
DNPGordon Olson   Reno, NV00:00.0 105151  432 l'Union Cycliste Aire-Barcelon
DNPMatthew Ream   Verdi, NV00:00.0 211441  434 Kinetic Cycles / GBI
DNPTodd Kohli   San Francisco, CA00:00.0 198414  446 American Lung Association Cycl
DNPMark Hockridge   Granite Bay, CA00:00.0 269690  450 Davis Bike Club Race Team
DNPRod SPR   00:00.0  452 FCI Armstrong
DNPRichard Tabuso   Roseville, CA00:00.0 274439  453 Rio Strada Racing
DNPTracy Muegge   Gold River, CA00:00.0 51637  457 Team Bicycles Plus/Sierra Neva
DNPNeil Bartley   San Jose, CA00:00.0 209268  460 Berkeley Bicycle Club (BBC)
DNPMike Kelly   Rio Linda, CA00:00.0 138145  467 Zenn Racing Team
DNPHarpartap Singh (Cat2)   Stockton, CA00:00.0 129097  469 Williams Cycling
DNPLeon Iannarelli   Vacaville, CA00:00.0 49838  499 Precision Bicycles/Team Precis

Men - Cat 1/2/3/4 - Master - 45-99

 Place Points NameCity, StateTime USAC #BibTeam
1244.33Gregg Betonte   Truckee, CA00:00.0 255414  603 SAFEWAY/Bicycles Plus/Pure Red
2251.09Vincent Gee   Sacramento, CA00:00.0 13001  614 Mellow Johnny's
3257.84John O'Neill   San Mateo, CA00:00.0 52722  634 Team Clover
4264.60Hunter Ziesing   Bel Tiburon, CA00:00.0 39478  679 Echelon Gran Fondo/Zteam
5271.36Mike Gadow   Dublin, CA00:00.0 12619  613 SJBC
6278.12Andre Tenthorey   Granite Bay, CA00:00.0 76561  676 Sacramento Golden Wheelmen
7284.87Michael O'Rourke   Auburn, CA00:00.0 204496  632 SAFEWAY/Bicycles Plus/Pure Red
8291.63David Schaefer   Hayward, CA00:00.0 219605  646 Peninsula Velo/Pomodoro
9298.39David Anderson   Encinitas , CA00:00.0 1608  601 Morgan Stanley/Team Spine/Spec
10305.14Joseph Oliveri   Grass Valley, CA00:00.0 26674  681 HDR Racing p/b Lombardi Sports
11311.90David Acri   San Francisco00:00.0 233803  686 Squadra Ovest Cycling
12318.66Spencer Kenner   Davis, CA00:00.0 86651  621 FCI Commercial
13325.42Vance Russell   Davis, CA00:00.0 157646  644 Davis Bike Club
14332.17Giovanni Campisi   Santa Rosa, CA00:00.0 256021  606 Taem NorCal Bike Sport
15338.93Joe McCrummen   Brentwood, CA00:00.0 23350  626 Taleo Racing
16345.69Jonathan Laine   Truckee, CA00:00.0 256153  622 SAFEWAY/Bicycles Plus/Pure Red
17352.44Rod Fernandez   Dixon, CA00:00.0 265576  612 Davis Bike Club Race Team
18359.20Gordon Ong   Carmichael, CA00:00.0 26762  678 Squadra Abruzzo
19365.96Mark Robertson   Oakland, CA00:00.0 237380  643 Taleo Racing
20UNKNOWN RIDER   00:00.0  ??? -------
21379.47Todd Cirata   Lincoln, CA00:00.0 159572  680 Unattached
22386.23Rodney Spradlin   El Dorado Hills, CA00:00.0 122266  650 FCI Commercial Capital
23392.99Craig Parker   Mill Valley, CA00:00.0 127588  636 ZteaM
24399.74Kelly Silberberg   San Anselmo, CA00:00.0 107871  648 Morgan Stanley Smith Barney/Sp
25406.50Patrick Tafoya   Redwood City, CA00:00.0 34910  652 SAFEWAY/Bicycles Plus/PureRed
26413.26John Steggall   Davis, CA00:00.0 135891  651 Davis Bike Club
27420.01Mark Walsh   Sacramento, CA00:00.0 46040  685 Berkeley Bicycle Club (BBC)
28426.77Michael Boehme   Windsor, CA00:00.0 252576  677 Colavita Racing
29433.53Brian Hitchman   Folsom, CA00:00.0 48419  617 Team Bicycles Plus/Sierra Neva
30440.29Russell Clays   Tracy, CA00:00.0 50248  608 IC3
31447.04Robert Pasco   Belmont, CA00:00.0 136970  683 SAFEWAY/Bicycles Plus/PureRed
32453.80Brian McCleary (1 - Cat2)   Sacramento, CA00:00.0 109066  625 Armstrong & Associates
33460.56Tony Reid   Sacramento, CA00:00.0 29458  641 SAFEWAY/Bicycles Plus/Pure Red
34467.31Richard Tabuso   Roseville, CA00:00.0 274439  682 Rio Strada Racing
35474.07Gerald Roberts   Sacramento, CA00:00.0 30073  642 Alcal
36480.83Fred Schnaars   Davis, CA00:00.0 65032  647 Davis Bike Club Race Team
37487.59Bubba Melcher   Reno, NV00:00.0 23961  628 Team Clover
38494.34Randy Farrens   Sacramento, CA00:00.0 143681  611 Rio Strada Racing
39501.10Jess Raphael   Napa, CA00:00.0 221460  640 SAFEWAY/Bicycles Plus/PureRed
40507.86Christopher Kemp   West Sacramento, CA00:00.0 18867  620 Team City
41514.61Kenny Lane   Citrus Heights, CA00:00.0 274485  623 
42521.37Todd Doherty (1 - Cat3)   Davis, CA00:00.0 9701  609 DAVIS BIKE CLUB
43528.13Steven Olechny   Saratoga , CA00:00.0 142113  633 Taleo Racing
44534.88Peter Allen   Fair Oaks, CA00:00.0 46996  600 SAFEWAY/Bicycles Plus/Pure Red
45541.64Tracy Muegge   Gold River, CA00:00.0 51637  630 Team Bicycle Plus/Sierra Nevad
46548.40Allan Armstrong   Los Altos, CA00:00.0 51079  602 Webcor/Alto Velo
DNSKurt Bickel   Upland, CA00:00.0 219611   Joes Pro Bikes
DNSSteven Gile   Salinas, CA00:00.0 98978   VOS Racing
DNSKen Hill   Woodland, CA00:00.0 274292   Davis Bike Club
DNSHarold Johnson (Cat1)   Mill Valley, CA00:00.0 17952   Olympic Club
DNSCraig Lindberg   Nevada City, CA00:00.0 83707   SERT/Sho-Air
DNSBubba Melcher   Reno, NV00:00.0 23961   Team Clover
DNSThomas Morris (Cat3)   Roseville, CA00:00.0 25151   Fightin Bobas
DNSRobert Nichols   Lockeford, CA00:00.0 255632   Williams Cycling
DNSWilliam Owens   Truckee, CA00:00.0 26982   Truckee Bicycle Team
DNSGregory Pike   Salinas, CA00:00.0 158350   VOS Racing
DNSLeon Pitts   Carmel, CA00:00.0 213367   VOS Racing
DNSBernard Silveria (Cat2)   El Dorado Hills, CA00:00.0 94897   Unattached
DNSErim Taser   Lodi, CA00:00.0 205116   Williams Cycling
DNSMartin Wolff   Carmel, CA00:00.0 203646   VOS Racing
DNPPhilip Blay   Folsom, CA00:00.0 274756  605 Folsom Bike
DNPPatrick Carroll (Cat3)   San Francisco, CA00:00.0 90587  607 G.S. Velo Veneto
DNPJulien Dufresne   Fair Oaks, CA00:00.0 59046  610 Team Bicycles Plus Sierra Neva
DNPChristopher Husing   Elk Grove, CA00:00.0 49804  618 FCI Commercial Capital
DNPAndrew Posselt   Mill Valley, CA00:00.0 216827  639 Squadra Ovest Cycling
DNPNabil Samaan   Fair Oaks, CA00:00.0 177518  645 
DNPpaul diaz   Cloverdale, CA00:00.0 271260  675 Unattached
DNPJohn Suriano   Chandler, AZ00:00.0 274765  684 Team Kenda

Men - Cat 1/2/3/4 - Master - 55-99

 Place Points NameCity, StateTime USAC #BibTeam
1370.56Brian Fessenden   Orinda, CA00:00.0 54692  377 Morgan Stanley/Team Spine/Spec
2385.27Mark Caldwell   Moraga, CA00:00.0 40039  374 morgan stanley smith barney/sp
3399.98Joe Saunders   San Anselmo, CA00:00.0 47412  395 Morgan Stanley/Team Spine/Spec
4414.68Michael Lynch   Ripon, CA00:00.0 180322  389 Team WM
5429.39Dana Farmer   Gold River, CA00:00.0 150815  376 VOS Racing
6444.09Thomas McDonough   Ukiah, CA00:00.0 68163  390 Fightin' Bobas
7458.80David Stockwell   San Jose, CA00:00.0 53052  397 SJBC
8473.51Edgar Leano   St Cloud, FL00:00.0 224847  386 renowheelmen
9488.21Richard Shields   Fremont, CA00:00.0 140693  396 Team Hammer Nutrition
10502.92Leon Iannarelli   Vacaville, CA00:00.0 49838  381 Team Precision
11517.62Manuel Borges   Vacavaille, CA00:00.0 254360  373 VOS Racing
12532.33Phillip Heiman   Penngrove, CA00:00.0 204100  380 Colavita Racing-Norcal
13547.04Alfred Kerr   Willits, CA00:00.0 262541  382 Fightin' Bobas
14561.74Kevin McSpadden   Woodland, CA00:00.0 23838  391 Davis Bike Club
DNSGreg Bollella   Redwood City, CA00:00.0 235126   Webcor / Alto Velo
DNSMac Carey   Pleasant Hill, CA00:00.0 249301   Taleo Racing
DNSMichael Freeman   Martinez, CA00:00.0 12357   Hammer Nutrition
DNSErnest Gallardo Sr   Soledad Ca.00:00.0 12682   Vos Racing
DNSJay Kinney   Placerville, CA00:00.0 125352   
DNSChristopher Kolm   Moraga, CA00:00.0 254578   Taleo Racing
DNSDouglas Lindsay   Truckee, CA00:00.0 21257   Truckee Bicycle Team
DNSSid Noyes   Eureka, CA00:00.0 54640   Echelon Gran Fondo/ZTeam
DNSJeffrey Pallin   Menlo Park, CA00:00.0 106496   Third Pillar Systems
DNSPeter Taylor   Truckee, CA00:00.0 281821   Truckee Bicycle Team
DNSRoger Von Rotz   Modesto, CA00:00.0 240458   Fun Sport Bikes Cycling Team
DNPMichael Alber   Incline Village, NV00:00.0 195483  371 Truckee Bicycle Team
DNPLarry Knaus   Santa Clara, CA00:00.0 48681  384 Webcor/Alto Velo
DNPalfonso leano   Sparks, NV00:00.0 310565  387 renoweelmen
DNPRobert Jimenez   Sacramento, CA00:00.0 53192  394 Rio Strada Racing

Men - Junior - 10-18

 Place Points NameCity, StateTime USAC #BibTeam
1277.90Ryan Gadow   Dublin, CA00:00.0 271417  903 SJBC
2290.00Steven Larsen   Placerville00:00.0 203934  922 Rio Strada Racing
3302.11Daniel Farinha   San Jose, CA00:00.0 240558  901 SJBC
4314.21Kenny Strickland   San Ramon, CA00:00.0 270965  909 SJBC
5326.31Matthew Valencia   Los Altos, CA00:00.0 255576  917 Team Specialized Racing Junior
6338.42Cody Tapley   Citrus Heights, CA00:00.0 234610  911 Davis Bike club
7350.52Chris LaBerge   Napa, CA00:00.0 229950  907 Team Specialized Racing Junior
8362.62Sean Clark   Pacifica, CA00:00.0 304701  919 Team Roaring Mouse
9374.73Stanley Goto   Petaluma, CA00:00.0 254829  904 All Sport Team Swift
10386.83Alexander Toth   Windsor, CA00:00.0 304859  912 All Sport Team Swift
11398.93Joseph Christensen   Clements, CA00:00.0 240832  923 SJBC
12411.03Zach Zeis   Redding, CA00:00.0 287560  916 Owens Healthcare
13423.14Jonathan Christensen   Clements, CA00:00.0 250315  924 DJs Produce - Rocket Sports Ra
14435.24Robert Terra   Lodi, CA00:00.0 269793  920 Rocket Sports Racing
15447.34Colton Nation   Davis, CA00:00.0 310176  908 Davis Bike Club
16459.45Drake Wilson   Redding, CA00:00.0 308378  915 
17471.55Caleb Knaggs   Lodi, CA00:00.0 307241  906 DJ'S Produce/Rocket Sports Rac
18483.65Aliya Traficante   Chico, CA00:00.0 310825  921 
19495.76Kyle Denison   El Dorado Hills, CA00:00.0 303671  900 Team Mad Cat
20Dylan LABERGE   00:00.0  925 
DNSRobbie Farrens   Stockton, CA00:00.0 289433   DJs Produce - Rocket Sports-Tr
DNSTroy Strickland   San Ramon00:00.0 279824   SJBC
DNSConnor Vance   Folsom, CA00:00.0 307873   
DNPMargaret Jones   Chico, CA00:00.0 286593  905 Chico Corsa Cycling Team
DNPDominique van den Dries   Los Gatos, CA00:00.0 255641  913 Peanut Butter Twenty12
DNPVincent Juarez   San Jose, CA00:00.0 286414  918 SJBC

Women - Cat 4

 Place Points NameCity, StateTime USAC #BibTeam
1464.54Alissa Maglaty   Portland00:00.0 288500  218 Early Bird Women's Development
2468.45Lisa Tepper   San Ramon, CA00:00.0 195409  240 Metromint Cycling
3472.36Beth Butrymowicz   Campbell, CA00:00.0 267372  205 Ohana Sport
4476.26Jennifer Jordan   Brisbane , CA00:00.0 250459  215 Team iPass
5480.17Ellen Sherrill   South Lake Tahoe, CA00:00.0 299535  226 Davis Bike Club
6484.08Ivy Wang   San Francisco, CA00:00.0 291752  236 Team Roaring Mouse
7487.99Ariana Preston   Sacramento, CA00:00.0 274099  224 Colavita
8491.90Kelly Snow   San Francisco, CA00:00.0 255117  229 Dolce Vita Cycling
9495.81Heather Ross   Felton, CA00:00.0 239612  225 Los Gatos
10499.71Leslie Creed   Dixon, CA00:00.0 158064  207 Davis Bike Club
11503.62Nicole Slaton   Davis, CA00:00.0 287914  228 Metromint Cycling
12507.53Michele Heaton   Santa Cruz, CA00:00.0 273618  213 Bike Trip / Symantec
13511.44carrie mcfarland   Sanfrancisco, CA00:00.0 303920  220 Dolce Vita Cycling
14515.35Allyson Kutler   San Francisco, CA00:00.0 304509  217 Dolce Vita Cycling
15519.25Christine Sodaro   Tiburon, CA00:00.0 295205  230 Colavita Racing-Norcal
16523.16Jeanine Bates   San Francisco, CA00:00.0 195292  201 Team iPass/CR3
17527.07Jamii North   Portola Valley, CA00:00.0 219869  238 OHANA Sport/Ducati
18530.98Shari Countryman   Foster City, CA00:00.0 304790  206 Team TIBCO II
19534.89G Evan Evans   San Mateo, CA00:00.0 237009  211 Team iPass/Code 3 Racing
20538.80Sharon Greenberg   Sanjose, CA00:00.0 305986  234 Unattached
21542.70Stephanie Dameral   Vacaville, CA00:00.0 287351  208 Early Bird Women's Development
22546.61Ann Kodani   Mountain View, CA00:00.0 143018  216 Team Tibco II
23550.52Margaret Winder   Lafayette, CA00:00.0 237600  242 HDR Racing p/b Lombardi Sports
24554.43Katie O'Neill   San Mateo, CA00:00.0 291444  223 Team TIBCO II
25558.34Anne Findlay   Sonora, CA00:00.0 238310  237 Early Bird Womens Developmenta
26562.24Dana Freedman   Menlo Park, CA00:00.0 273191  235 Team TIBCO II
27566.15Brandi Bergstrom   San Francisco, CA00:00.0 264433  203 Dolce Vita Cycling
28570.06Jill Eyres   Montara, CA00:00.0 282468  212 Team TIBCO II
29573.97June Nguyen   Santa Rosa00:00.0 277526  222 Early Bird Women's Development
30577.88Stephanie Denison   El Dorado Hills, CA00:00.0 307550  210 Team Mad Cat
31581.79Ellen Evans   Sacramento, CA00:00.0 310883  241 
32Laurie LEWIS   00:00.0  243 
DNPSummer Bundy   Pacifica, CA00:00.0 304457  239 Dolce Vita Cycling

Women - Cat 1/2/3

 Place Points NameCity, StateTime USAC #BibTeam
1292.84Elizabeth Newell   Oakland, CA00:00.0 252152  961 MRBerkeley.com p/b Bell Lap
2300.23Jane Robertson   Davis, CA00:00.0 218607  978 Metromint Cycling
3307.62Emily Kachorek (1 - Cat1)   Sacramento, CA00:00.0 167636  957 Wells Fargo Racing Team
4315.01Amy Chandos   Flagstaff, AZ00:00.0 256409  989 Metromint Cycling
5322.40Cody Graf (1 - Cat2)   Sacramento, CA00:00.0 248416  952 Wells Fargo Racing Team
6329.79Laurie Furman   Redwood City, CA00:00.0 107768  971 Team iPass
7337.18Brianna Hand (2 - Cat2)   Oakland, CA00:00.0 218318  984 Metromint Cycling
8344.57Vanessa Drigo   Charlotte, NC00:00.0 257356  968 Unattached
9351.96Starla Teddergreen (3 - Cat2)   Portland, OR00:00.0 202033  965 VANDERKITTEN presented by KEND
10Julie BELLEROSE   00:00.0  983 Cascades-ABC Cycle
11366.75Janelle Kellman   Sausalito, CA00:00.0 217916  981 Dolce Vita Cycling
12374.14Heather Nielson   Seattle, WA00:00.0 237346  962 Touchstone Climbing
13381.53Marianne Hernandez   Davis, CA00:00.0 68813  954 Davis Bike Club
14388.92Kim Wik   Fremont, CA00:00.0 254251  967 iPass/Code3Racing
15396.31Molly Van Houweling   Berkeley, CA00:00.0 201051  972 Metromint Cycling
16403.70Carol Irving   Woodland, CA00:00.0 17419  955 Touchstone Climbing
17411.09Samantha Taylor (4 - Cat2)   San Francisco, CA00:00.0 235763  964 Los Gatos
18418.48Emily Weinert   Atlanta, GA00:00.0 282470  966 Team TIBCO II
19UNKNOWN RIDER   00:00.0  ??? -------
20433.26Joan Gregg   Sacramento, CA00:00.0 114502  986 Squadra Abruzzo
21440.65Kelly Bartholomew   San Rafael, CA00:00.0 48431  969 Los Gatos
22448.04Alison Starnes   Mill Valley, CA00:00.0 266806  987 Team Tibco II
23455.43Katie Kindt   831238391300:00.0 160500  982 Dolce Vita Cycling
24462.82Katie Stonebraker   Sacramento, CA00:00.0 226927  985 Velo Bella
25470.21Larissa Fitchett (5 - Cat2)   Silverado, CA00:00.0 274696  988 Unattached
26477.60Amy Russo   Santa Cruz, CA00:00.0 134488  963 Dolce Vita
27484.99Kimberly White   Grand Junction, CO00:00.0 209678  975 Dolce Vita Cycling
28492.38Ryan Hostetter   San Luis Obispo, CA00:00.0 191767  979 Metromint Cycling
29499.77Kim Ladd   Palo Alto, CA00:00.0 250460  976 Team iPass
30507.17Elis Bradshaw   Oakland, CA00:00.0 208125  950 Touchstone Climbing
31Kelly MCDONEL   00:00.0  974 Touchstone Climbing
32521.95Karena Shannon   Castro Valley, CA00:00.0 266333  977 Team iPass
33529.34Julie Porter   Auburn, CA00:00.0 176587  990 Velo Bella
34536.73Mary Glenn Carrasco   Foster City, CA00:00.0 266378  951 OHANA SPORT/DUCATI
35544.12Jillian Kollman   Elk Grove, CA00:00.0 258243  959 Team Mad Cat
36551.51Christina Yglesias   Cupertino, CA00:00.0 264750  980 Proman Hit Squad
DNSApril Hamlin   El Dorado Hills, CA00:00.0 266244   Touchstone Climbing
DNPMargaret Jones   Chico, CA00:00.0 286593  956 Chico Corsa Cycling Team
DNPSarah Kayfetz (Cat3)   San Francisco, CA00:00.0 104310  958 Dolce Vita
DNPGina Lowe (Cat2)   Redding, CA00:00.0 207849  960 Touchstone Climbing
DNPMonica Holt   Saratoga, CA00:00.0 268263  970 Team iPass
DNPMarian Jamison   Gloucester, MA00:00.0 230034  973 Touchstone Climbing

Report missing or incorrect license numbers

Volkswagen
SpyShimanoBonk BreakerSierra NevadaUSACDF
UCI USA Cycling is the official governing body for all disciplines of competitive cycling in the United States. The 501c3, membership-based organization aims both to achieve sustained success in international cycling competition and to grow competitive cycling in America while delivering an exceptional customer experience.
View Children's Online Privacy Protection Policy
US Olympic Committee